Temperature
5 5 5 5 4 4 4 3 3 2 3 4 4 4 3 3 3 3 3 3 3 3 3 3 3 3 3 3 3 3 3 4 4 4 4 4 4 4
5 5 5 4 4 4 3 3 3 2 2 3 3 3 3 3 3 3 3 3 3 3 3 3 3 3 3 3 3 3 3 3 3 3 3 3 4 4
5 4 4 4 4 3 3 3 2 2 2 2 3 3 2 2 2 2 2 2 2 3 3 3 3 3 3 3 3 3 3 3 3 3 3 3 3 3
4 4 4 4 3 3 3 3 2 2 1 1 2 2 2 2 2 2 2 2 2 2 2 2 2 2 2 2 2 2 2 3 3 3 3 3 3 3
4 4 3 3 3 3 2 2 2 1 1 1 1 1 1 1 1 2 2 2 2 2 2 2 2 2 2 2 2 2 2 2 2 2 2 2 2 2
4 3 3 3 3 2 2 2 1 1 0 0 0 0 0 0 0 0 1 1 1 1 2 2 2 2 2 2 2 2 2 2 2 2 2 2 2 2
3 3 3 3 3 2 2 1 1 0 0 -0 -0 -0 -0 -0 -0 -0 -0 0 1 1 1 1 1 1 1 1 1 1 1 1 1 1 1 1 1 2
3 3 3 3 2 2 1 1 1 0 -0 -0 -1 -1 -1 -1 -1 -1 -1 -1 -0 0 0 1 1 1 1 1 1 1 1 1 1 1 1 1 1 1
3 2 2 2 2 1 1 1 0 0 -0 -0 -1 -1 -1 -1 -1 -1 -1 -1 -1 -1 -0 0 0 0 0 0 0 0 0 0 1 0 0 0 1 1
2 2 2 2 1 1 1 1 0 0 -0 -0 -1 -1 -1 -1 -1 -1 -1 -1 -1 -1 -1 -1 -0 -0 0 0 -0 -0 0 0 0 0 0 0 0 1
2 2 1 1 1 1 0 0 0 -0 -0 -0 -1 -1 -1 -1 -1 -1 -1 -1 -1 -1 -1 -1 -1 -1 -0 -0 -0 -0 -0 -0 -0 -0 -0 0 0 0
1 1 1 1 1 0 -0 -0 -0 -0 -1 -1 -1 -1 -1 -1 -1 -1 -2 -2 -2 -2 -1 -2 -2 -2 -1 -1 -1 -1 -1 -0 -0 -0 -0 -0 -0 -0
1 1 1 1 0 0 -0 -0 -1 -1 -1 -1 -1 -1 -1 -1 -1 -2 -2 -2 -2 -2 -2 -2 -2 -2 -2 -2 -1 -1 -1 -1 -1 -1 -1 -0 -0 -0
1 1 1 0 0 0 -0 -1 -1 -1 -1 -1 -1 -2 -2 -2 -2 -2 -2 -2 -2 -2 -2 -2 -2 -2 -2 -2 -2 -1 -1 -1 -1 -1 -1 -1 -1 -1
0 0 0 -0 -0 -0 -1 -1 -1 -1 -2 -2 -2 -2 -2 -2 -2 -2 -2 -2 -2 -2 -2 -2 -2 -2 -2 -2 -2 -2 -2 -2 -1 -1 -1 -1 -1 -1
-0 -0 -0 -0 -0 -1 -1 -1 -1 -2 -2 -2 -2 -2 -2 -2 -2 -2 -2 -2 -2 -2 -2 -2 -2 -2 -2 -2 -2 -2 -2 -2 -2 -2 -2 -1 -1 -1
-1 -1 -1 -1 -1 -1 -1 -1 -2 -2 -2 -2 -3 -3 -3 -3 -3 -3 -3 -3 -3 -3 -2 -2 -2 -2 -2 -2 -2 -2 -2 -2 -2 -2 -2 -1 -1 -1
-1 -1 -1 -2 -2 -2 -2 -2 -2 -2 -3 -3 -3 -3 -3 -3 -3 -3 -3 -3 -3 -3 -3 -3 -3 -2 -2 -2 -2 -2 -2 -2 -2 -2 -2 -2 -2 -1
-2 -2 -2 -2 -2 -2 -2 -2 -2 -3 -3 -3 -3 -3 -3 -3 -3 -3 -3 -3 -3 -3 -3 -3 -3 -3 -3 -3 -3 -3 -3 -3 -2 -2 -2 -2 -2 -2
-2 -2 -2 -3 -3 -3 -3 -3 -3 -3 -3 -3 -3 -3 -3 -3 -3 -3 -3 -3 -3 -3 -3 -3 -3 -3 -3 -3 -3 -3 -3 -3 -3 -3 -2 -2 -2 -2
-3 -3 -3 -3 -3 -3 -3 -3 -3 -3 -3 -3 -3 -4 -4 -4 -4 -4 -4 -4 -4 -4 -3 -3 -3 -3 -3 -3 -3 -3 -3 -3 -3 -3 -3 -3 -2 -2
-3 -3 -3 -3 -3 -3 -3 -3 -3 -3 -3 -4 -4 -4 -4 -4 -4 -4 -4 -4 -4 -4 -4 -4 -3 -3 -3 -3 -4 -3 -3 -3 -3 -3 -3 -3 -3 -3
-3 -3 -3 -3 -4 -4 -4 -4 -4 -4 -4 -4 -4 -4 -4 -4 -4 -4 -4 -4 -4 -4 -4 -4 -3 -3 -4 -4 -4 -3 -3 -3 -3 -3 -3 -3 -3 -3
Wind_Speed
3 4 4 4 4 5 6 6 7 9 10 9 7 8 10 11 13 14 14 16 18 19 18 18 18 18 18 18 18 19 19 19 18 18 18 18 18 19
3 4 5 4 5 5 5 6 7 8 9 9 10 12 12 11 14 14 15 18 17 18 18 18 18 17 17 18 18 19 19 18 16 16 17 17 17 17
4 5 5 6 5 5 5 6 7 7 11 12 11 12 14 13 12 13 14 13 13 16 17 18 18 17 17 17 17 17 16 16 15 15 15 15 15 15
5 6 6 5 6 6 6 7 7 8 10 13 12 12 14 13 13 13 12 12 12 15 17 17 17 17 16 16 15 15 15 14 14 14 14 14 14 14
5 6 6 6 7 6 7 7 7 8 8 10 12 11 11 11 12 12 13 11 12 13 14 14 15 16 15 15 14 14 14 13 14 14 13 13 13 13
5 6 7 7 7 8 7 8 8 8 9 9 10 10 10 11 10 11 11 11 11 11 12 12 13 14 13 13 13 13 13 12 13 12 12 12 12 12
5 6 6 7 8 8 7 8 8 8 8 8 9 9 9 10 10 10 11 12 12 8 9 9 9 8 8 10 11 12 13 12 12 11 11 11 11 11
5 6 6 7 7 9 10 10 10 9 9 9 9 10 11 11 10 10 10 11 9 7 9 9 8 8 7 7 10 11 12 12 12 11 10 10 11 10
5 6 5 6 7 7 8 9 10 11 11 10 11 11 11 11 11 11 11 11 10 9 9 8 7 7 7 8 10 10 11 12 12 12 11 10 10 10
5 6 6 7 6 7 8 8 9 9 9 9 9 11 11 11 10 10 10 10 9 7 6 6 7 7 8 7 8 9 11 12 12 11 11 10 10 10
5 5 6 6 7 9 8 8 9 8 8 9 11 11 12 12 10 7 7 7 7 7 5 4 6 7 7 6 7 9 11 11 12 11 10 11 10 10
4 5 5 7 8 9 7 7 8 9 9 9 8 8 8 8 9 7 6 6 6 5 4 5 5 6 5 4 6 7 9 10 11 11 10 10 10 7
4 4 4 7 8 9 8 7 8 9 8 7 7 7 7 6 6 6 6 5 6 5 5 5 5 5 4 5 6 6 7 7 8 8 8 9 9 7
4 4 4 6 8 8 7 7 9 8 5 5 5 6 6 6 6 7 7 6 5 6 7 6 4 5 5 6 5 6 7 7 7 7 6 8 8 8
3 5 6 7 7 5 6 7 6 4 4 5 5 6 6 6 6 6 7 6 6 5 5 6 5 5 5 5 6 6 6 6 7 7 7 6 6 6
3 4 5 5 5 5 5 5 4 4 4 4 5 5 5 5 6 6 6 6 5 5 5 6 6 5 4 6 5 6 6 5 6 7 6 6 6 5
3 3 3 3 3 4 4 4 4 4 4 4 5 5 5 5 6 6 6 6 5 5 6 6 6 5 4 5 5 5 5 5 6 6 6 6 6 6
2 2 2 3 3 4 4 5 4 5 5 5 4 4 5 5 6 6 5 5 5 5 5 5 5 4 3 2 3 4 5 5 6 6 5 5 6 6
2 2 2 3 3 4 4 4 5 5 5 4 4 5 5 5 5 5 5 5 5 5 5 5 5 5 5 5 4 4 4 5 6 5 5 4 5 6
2 2 3 3 3 4 4 4 5 5 4 4 4 5 5 5 5 5 5 6 6 5 5 5 5 5 4 4 4 5 7 5 5 5 5 4 4 5
2 2 3 3 4 4 4 4 4 4 4 4 4 5 5 5 5 5 5 7 6 5 6 6 5 7 4 3 3 4 5 6 5 4 5 4 4 4
2 3 3 4 4 4 4 4 4 4 4 4 4 4 4 4 5 6 6 6 5 5 5 5 5 4 3 2 3 4 5 6 7 7 6 3 2 2
3 3 3 4 4 4 4 4 5 4 4 4 4 4 4 4 5 5 5 5 5 5 5 4 4 3 3 3 3 4 5 6 6 6 6 7 6 4
Wind_Direction
267 272 277 279 278 279 279 280 285 296 301 306 311 310 314 311 311 310 310 311 309 308 308 308 307 308 307 307 306 304 303 300 296 294 294 291 288 285
271 274 280 281 280 278 276 275 273 279 287 296 305 307 311 309 311 311 310 309 305 307 308 308 308 308 307 307 306 306 304 303 299 298 296 293 290 288
274 277 282 283 282 281 279 274 273 275 281 291 300 307 309 310 313 315 312 311 309 307 309 309 310 309 308 308 307 308 308 307 303 301 302 300 295 292
278 281 284 284 282 284 284 280 279 279 282 290 299 307 309 311 313 314 316 313 310 310 310 311 313 312 313 313 313 313 312 310 309 304 304 304 300 295
276 279 283 285 285 287 288 286 285 285 284 288 296 303 306 311 316 315 316 314 314 313 310 312 313 315 316 315 316 318 317 316 316 311 307 306 306 302
277 278 280 281 284 289 290 291 293 294 293 292 294 301 307 314 316 318 318 319 317 316 315 315 316 318 320 321 322 323 323 322 320 317 314 310 308 306
283 282 281 285 290 290 291 296 298 295 296 295 296 303 308 316 316 316 314 317 316 319 321 321 321 321 324 326 328 332 334 332 328 321 319 319 317 314
286 291 291 287 291 291 293 296 296 292 294 294 295 299 305 309 312 313 315 316 315 325 321 316 320 320 325 327 334 337 338 339 339 335 330 325 322 320
286 294 299 299 298 297 298 298 295 288 284 285 289 296 301 307 310 311 311 309 306 314 315 308 319 320 323 331 337 341 343 343 343 341 337 335 333 330
286 290 296 304 308 308 307 305 303 300 298 295 294 297 301 304 305 302 302 303 302 310 318 306 317 318 322 327 340 344 341 341 341 339 338 339 336 331
294 293 296 300 311 314 311 307 308 311 313 307 306 307 311 312 315 312 314 315 313 316 328 314 313 318 316 317 334 341 340 341 342 340 339 340 338 332
299 298 299 304 312 314 310 308 308 314 319 319 318 321 322 325 330 324 314 310 311 311 333 327 315 325 319 315 325 331 334 336 341 342 343 343 342 338
300 304 307 313 315 313 311 305 308 314 314 318 321 325 329 332 335 332 324 311 306 301 310 314 307 313 304 307 314 325 331 330 334 338 344 347 347 345
302 308 315 321 321 318 316 320 321 318 316 321 325 328 330 331 330 328 324 318 305 297 305 307 295 303 306 307 310 320 326 330 333 334 337 342 345 344
315 325 325 323 322 322 335 336 331 326 325 325 326 327 326 321 322 324 324 321 314 311 316 316 308 300 296 296 304 311 318 326 335 337 339 339 334 333
324 330 335 338 338 340 339 341 339 332 326 322 322 323 326 330 332 331 327 331 332 333 334 331 322 314 306 306 303 308 318 320 330 335 335 332 336 342
330 338 345 345 347 347 343 342 339 337 336 330 326 328 331 333 333 333 328 330 332 331 338 341 332 315 302 305 311 318 323 325 328 334 338 339 340 344
353 349 343 339 338 336 334 335 336 337 334 330 327 328 330 330 331 334 334 334 334 333 333 334 336 332 319 308 318 315 330 332 333 337 339 339 342 346
13 356 338 333 332 330 327 326 328 330 328 326 327 327 326 326 329 333 336 334 333 331 331 330 337 343 344 343 346 352 329 328 335 343 346 340 334 337
6 343 332 328 325 322 322 325 326 328 327 327 328 327 325 326 328 330 331 332 330 329 332 338 344 342 333 323 321 329 338 325 333 341 340 337 335 333
339 330 322 320 318 316 315 318 320 321 324 325 326 326 325 325 325 325 325 327 328 329 333 335 330 324 308 305 322 337 347 358 345 326 329 338 344 354
327 321 317 315 315 312 312 316 318 319 322 322 321 320 319 319 319 320 323 326 327 328 325 328 333 338 344 353 344 339 342 350 3 5 359 338 323 354
320 318 316 313 309 307 308 310 311 314 316 314 313 313 316 318 318 317 318 322 325 328 332 338 345 349 345 336 337 340 344 348 353 2 8 15 16 356
Height
1495 1494 1493 1491 1489 1487 1486 1483 1481 1474 1469 1466 1465 1461 1458 1454 1450 1446 1441 1437 1434 1430 1426 1423 1419 1416 1413 1410 1407 1404 1401 1398 1395 1393 1391 1389 1387 1386
1492 1491 1489 1487 1485 1483 1481 1479 1477 1474 1467 1462 1460 1457 1453 1450 1446 1442 1437 1433 1429 1425 1422 1418 1414 1411 1408 1404 1401 1398 1395 1392 1389 1387 1385 1383 1381 1379
1489 1487 1486 1484 1482 1480 1477 1475 1473 1470 1464 1458 1456 1453 1449 1445 1441 1437 1433 1429 1424 1421 1417 1413 1410 1406 1403 1399 1396 1393 1390 1387 1384 1382 1380 1377 1376 1374
1485 1484 1482 1480 1478 1476 1473 1471 1468 1466 1462 1455 1451 1448 1445 1441 1437 1433 1429 1425 1421 1417 1413 1409 1405 1402 1398 1395 1392 1388 1385 1382 1379 1377 1375 1373 1371 1370
1481 1480 1478 1476 1474 1472 1469 1467 1464 1461 1458 1453 1448 1444 1441 1437 1433 1428 1425 1420 1416 1412 1408 1405 1401 1397 1394 1390 1387 1384 1380 1377 1374 1372 1370 1369 1367 1365
1477 1476 1474 1472 1469 1467 1465 1462 1460 1457 1454 1450 1445 1441 1437 1434 1430 1424 1419 1416 1412 1408 1405 1401 1397 1393 1390 1387 1384 1380 1377 1374 1371 1368 1366 1365 1363 1362
1474 1472 1470 1468 1465 1463 1461 1458 1455 1452 1449 1446 1442 1438 1434 1430 1427 1422 1417 1412 1409 1405 1401 1397 1394 1390 1387 1384 1380 1377 1374 1371 1368 1365 1363 1362 1360 1358
1470 1468 1466 1464 1461 1459 1457 1454 1452 1449 1446 1443 1439 1435 1431 1428 1424 1420 1415 1411 1405 1403 1399 1395 1392 1388 1385 1381 1378 1375 1372 1369 1366 1363 1361 1359 1357 1356
1466 1464 1462 1460 1458 1455 1453 1450 1448 1445 1443 1440 1436 1432 1429 1425 1421 1417 1414 1409 1405 1401 1397 1392 1389 1386 1383 1379 1376 1373 1370 1367 1364 1361 1359 1356 1354 1353
1463 1461 1459 1456 1454 1452 1449 1446 1444 1441 1439 1436 1433 1429 1426 1423 1419 1416 1411 1407 1403 1400 1396 1391 1387 1384 1381 1378 1375 1371 1368 1365 1362 1360 1357 1354 1352 1350
1459 1457 1455 1453 1451 1449 1446 1443 1440 1437 1435 1432 1429 1426 1423 1420 1416 1413 1408 1404 1400 1397 1394 1391 1386 1382 1379 1376 1374 1370 1367 1364 1361 1358 1355 1353 1350 1348
1456 1454 1452 1450 1448 1446 1443 1440 1437 1434 1431 1428 1426 1423 1420 1417 1414 1411 1407 1403 1399 1395 1392 1390 1386 1383 1378 1375 1373 1370 1366 1363 1360 1357 1354 1351 1349 1347
1452 1450 1449 1447 1445 1443 1440 1438 1435 1432 1429 1426 1423 1420 1417 1414 1411 1408 1405 1402 1399 1395 1392 1389 1385 1383 1380 1375 1372 1369 1366 1363 1359 1356 1353 1351 1349 1347
1449 1447 1446 1444 1442 1440 1437 1435 1432 1430 1426 1423 1420 1417 1414 1412 1409 1406 1403 1401 1398 1394 1391 1388 1385 1382 1379 1375 1372 1369 1366 1363 1359 1356 1353 1351 1349 1347
1447 1445 1443 1441 1439 1437 1435 1432 1430 1427 1425 1422 1419 1416 1413 1410 1407 1404 1401 1399 1396 1393 1390 1387 1385 1382 1379 1376 1372 1369 1365 1363 1360 1357 1354 1351 1348 1347
1444 1442 1441 1439 1437 1435 1432 1430 1428 1426 1423 1420 1417 1415 1412 1409 1406 1403 1400 1397 1394 1391 1389 1387 1384 1382 1378 1376 1372 1369 1366 1363 1360 1357 1354 1351 1349 1347
1442 1440 1438 1436 1434 1433 1431 1429 1426 1424 1422 1419 1416 1413 1411 1408 1405 1403 1400 1397 1394 1391 1388 1386 1384 1381 1378 1376 1372 1369 1367 1364 1361 1358 1355 1352 1349 1347
1440 1438 1436 1434 1433 1431 1429 1427 1425 1423 1420 1418 1415 1413 1410 1408 1405 1402 1400 1397 1394 1392 1389 1386 1383 1380 1378 1375 1373 1370 1367 1364 1362 1359 1356 1353 1350 1348
1438 1436 1435 1433 1431 1429 1427 1425 1423 1421 1419 1417 1414 1412 1410 1407 1405 1402 1400 1397 1395 1392 1390 1387 1384 1381 1378 1376 1374 1372 1368 1365 1362 1360 1357 1355 1352 1349
1436 1435 1433 1431 1430 1428 1426 1424 1422 1420 1418 1416 1414 1411 1409 1407 1404 1402 1400 1398 1395 1393 1390 1388 1385 1383 1380 1378 1375 1372 1370 1367 1364 1360 1358 1356 1353 1351
1434 1433 1431 1430 1428 1427 1425 1423 1421 1419 1417 1415 1413 1411 1409 1407 1404 1402 1400 1398 1396 1393 1391 1388 1386 1384 1381 1379 1376 1373 1371 1369 1366 1363 1360 1357 1354 1352
1433 1431 1430 1428 1427 1425 1423 1421 1419 1418 1416 1414 1412 1410 1408 1406 1404 1402 1400 1398 1396 1394 1391 1389 1387 1384 1382 1380 1377 1374 1372 1370 1368 1365 1362 1360 1357 1355
1431 1430 1428 1427 1425 1423 1422 1420 1418 1416 1415 1413 1411 1409 1408 1406 1404 1402 1400 1398 1396 1394 1391 1389 1387 1385 1383 1381 1378 1376 1373 1371 1368 1366 1364 1362 1360 1358